Back to catalog

BEIDOU 3M14

AliveNavigationMEO
NORAD 43623·PAYLOAD·🇨🇳 China

Launched Sep 19, 2018 from Xichang Satellite Launch Center

Loading…

Next Passes (next 24 hours)

TLE

FreshSource: CelesTrak SupGP

Epoch: Sep 12, 2026, 00:00 UTC

1 43623C 18072B   26255.00000000  .00000000  00000+0  00000+0 0  2559
2 43623  56.7067  59.7935 0003438  24.1520  75.7474  1.86231220    11

Track BEIDOU 3M14 in real time with AllMySat

Download on the App Store